Location: Manchester NH
(43.0000°N, 71.5000°W)
Time: 21:21:08
(UTC-04:00)

ELECTRON R/B - Visible Passes

Search period start: 20 May 2018 00:00
Search period end: 30 May 2018 00:00
Orbit: 285 x 480 km, 82.9° (Epoch: 20 May)

Date Brightness Start Highest point End Pass type
(mag) Time Alt. Az. Time Alt. Az. Time Alt. Az.
20 May 6.3 21:05:01 10° NNE 21:06:41 17° ENE 21:07:32 14° ESE visible
21 May 4.5 21:40:50 10° NNW 21:43:15 69° W 21:44:07 34° S visible
22 May 6.4 20:45:14 10° NE 20:46:43 14° ENE 20:48:11 10° ESE visible
22 May 7.4 22:18:36 10° WNW 22:19:28 11° W 22:20:19 10° WSW visible
23 May 4.3 21:20:42 10° N 21:23:07 86° W 21:24:51 17° S visible
24 May 7.4 21:57:55 10° WNW 21:59:12 13° W 22:00:32 10° WSW visible
25 May 4.2 21:00:15 10° N 21:02:41 76° E 21:05:10 10° S visible
26 May 7.3 21:37:00 10° NW 21:38:38 16° W 21:40:18 10° SW visible
28 May 7.1 21:15:51 10° NW 21:17:45 19° W 21:19:42 10° SW visible
